"Pseudo-MPEC" for A10quWn

Created 2020 Sep 23 19:07:03 UT using Find_Orb

Click here for an explanation of pseudo-MPECs

 
 Astrometry: 
     A10quWn  C2020 09 15.59952104 36 19.99 -40 16 02.5    ~9FGb 19.00oVNEOCPT08
     A10quWn  C2020 09 15.60274604 36 20.00 -40 16 04.8    ~9FGb 18.92oVNEOCPT08
     A10quWn  C2020 09 15.61935104 36 19.79 -40 16 14.9    ~9FGb 19.02oVNEOCPT08
     A10quWn  C2020 09 15.62845304 36 19.65 -40 16 21.1    ~9FGb 19.12oVNEOCPT08
     A10quWn 1C2020 09 16v[?I4-Q79dtWX0ND:CsyZKTR+.+_pFAl'`;;GF,:dKvkT@+wm^W?Q62
     A10quWn 1C2020 09 168cJFncp:+cvEXkGYx;CXAtIu:.L.l)'^GQ_;;U0r`yQQdOa.][12Q62
     A10quWn KC2020 09 16vt^^fAe%hpd^e?He8.?C_?-55HwL*b8Z\vr#r](:-lRse8#.1nQaE94
     A10quWn 1C2020 09 16]@04Gnv_N36F6b]rjU=)UVaAa2rIIm3]:'3SUiUjQ8b.\=dr0K6QQ62
     A10quWn KC2020 09 162$[%Knb?OPr*P_AmQ]Uhdrh(ERS5]e8;!=fIZ+ydX]:tw5ANsw7oE94
     A10quWn KC2020 09 16^?njL*N7vClm0pMookMR,G)uCXH@N_i3X^W*h_v)h1m^_b-Pj:6kE94
     A10quWn KC2020 09 18Cf4U4T*Nxq`\Nk$4AB=/-0HlL/wIgbG-vBAstrometry+,J)#0?,E94
     A10quWn KC2020 09 18UC@v?7`L!.s'=JxAk`hy\jugQEpTUi`1fZa+KG2LU_.Mc,HTl6-(E94
     A10quWn KC2020 09 18Z\predacted;1'@f70P;c\f1Hm@aUG$ao2-_@5@_Q^ZqODR+tGn0E94
     A10quWn KC2020 09 18gY24Tsi!wPqd70*MP`f\xFS'D_2?,')N:bniRpA\A+tQi!\Og(hKE94
     A10quWn KC2020 09 19/2eB+q#5y=Qb2@:\;P#FJ.5%j?mbG[4VGyRSJUhJssf_mZA/0xU5W73
     A10quWn KC2020 09 19,k:Qd-91B'AjZtw+)e/V8u;+U6:?4JTuooYV?DS!ew[9tfC9OyQJW73
     A10quWn KC2020 09 19o6Y++ytUSo$u]3n'foFcQ`7q]PG6[K+q_7^11kZ5H/L[#-!MTXnUW73
     A10quWn KC2020 09 19)+_*A@VMkoHS)3x=IFclickLu[))\V7h_Urjn1428Z'V\Z9o3VY\W73
     A10quWn 2C2020 09 19n;fQQvBR?'a7qV9\DuX-+:BE0UU(h8P]X[5.#AM*(dU8X8]^3;ErJ04
     A10quWn KC2020 09 19Vgq@vMHe?SQ47_8Xgvhere;QRScD6!1,G)h!6?(^*!7,,LxkVX:qW73
     A10quWn 2C2020 09 19dF%'j;)!!*_qL:-kvFOw76)=4N[DaPp%vu,AjivFs[=FOKkKKAbWJ04
     A10quWn 2C2020 09 19_kh;iOk_TB4`c%P9K#OB#$Go*r6,[ml;84V[cAqD/Wa4a9?O6BT]J04
     A10quWn KC2020 09 197^0'DENj`@$pgrw8,JWA1X4*-$M;bSLRqNB1oG'qhn'p+Nu`d!GhW73
     A10quWn KC2020 09 19N=*Fp0FH'OE8DF@oht=IDqTrGq21LZSw8GH!J*PoBt;C)j`S5WaaW94
     A10quWn KC2020 09 19$Xti^.w^+59R7:VAjK@4a$%G1nXr/7+)i7#(vlA)^5_Y%eQC_f^=W94
     A10quWn KC2020 09 19E_Nm=!.,`5OQl1N9R1wAJ0F5bCON'lMfA@^vBl\([1Z(CbAOsrqCW94
     A10quWn 4C2020 09 20\q3DobLvTy=OsUKp!-R]sf?N:E!2pynBfm7N?3\s*fF97;yoRr[qW88
     A10quWn 4C2020 09 20hd1g?w^E^8q22*I_i5+(Hw%q)Q,sJeajybbYGTP3@4\for%WK1:RW88
     A10quWn KC2020 09 20Y71*A=6u6a;Q+WPmscnN9(H(N_j_yvrk-fJla;-ll4w`-`.56^\UW73
     A10quWn KC2020 09 202AyquuCf\yRaEmSpnE*k_7Rn',^eBmwclH8AE$$D0ei$Avt5vX[5W73
     A10quWn KC2020 09 20Ig]PMB;oil2\:KW_)5]:T'uWleSJFiMg$:Hsc8fONZ_t^uWxO8p%W73
     A10quWn KC2020 09 21pbjIfjl9WsqKuEhg1=;EU?VPwTYiJ^_f(cRrUE)(qTXBE'`;LXplX31
     A10quWn KC2020 09 214CB32lrrXT[dMj/0Me_va*#!yP3Iv!I?w]+i/W!=l?D7)Ud/t#`[X31
     A10quWn KC2020 09 21ac7a9$05Z4.WK:G4KQvvU%Qsh%vN`]8Qx+0cujw)GwH6I%AA!=vHW94
     A10quWn KC2020 09 21InMyCh\5s5@)x;suyAwvigyn.@IpO(sxVruxU0qjPUhFN=EInu9[W94
     A10quWn KC2020 09 21OaCI1#t:,m8bf3`uC1?NfaNo$MLH1aQs*U^.OR:BkVbXp][*Hc2=W94
     A10quWn 3C2020 09 21A_[GaG.9tmnXUC0I?U%(4O?j0BNX_`O[Ee(,27y`^m9j(bd8gFpeW88
     A10quWn 3C2020 09 21p-x9G^h()-disUiY96QR[Z:EL[kRQVXq?^9!AGed@u-4DQg%e[$kW88
     A10quWn KC2020 09 21=ICnYEQyQp]kKXlkCffPfNrA-7#1]@4hnoEYFp=kAO]fLJRWj-_NE94
     A10quWn KC2020 09 21m.QXkKmKna+=,e=V\/xeFd8JqI;$.1,!?8ZdcMjWhutN`l+v!)bGE94
     A10quWn KC2020 09 21Grr#gv1R)3LAG6^NpVDDp6Om72/94ce,f,)w^fd0ae!y9[o/7:TbE94
     A10quWn KC2020 09 21*)Uvpi*'T6m:sDx_/ctdhyoQ7c+SHibD_3C-AY[SD3l-vm\:mJ:!E94
     A10quWn KC2020 09 21+Za8(*C9f34EgIRe\EM3l/'93u/hZiOrK3rQVxjBeXB,'NLdMyQ?E94
     A10quWn 3C2020 09 22bX2uTBc41m-]Y472Y3w7/^?^d]1c4+%F=TT_=iKdPbEcP6ucIs!YQ62
     A10quWn 3C2020 09 221tquW\8Eg=k_qFxhi#-seR\pBXYk+Z$p.uke2)dy08KV79ynLZ,.Q62
     A10quWn 3C2020 09 22*N@c@%Dxu,Nfr`I6_#FRNVCBU7B[KODUWd?QD=P?I$`udcf#g2U;Q62
     A10quWn KC2020 09 23iR]xjZZoc$K@BDrf;H`:jcGPlWF[/)4y=HoLtGHr?i3AOQ!)EEl%X02
     A10quWn KC2020 09 23lwrIC-YA2Di[JoUKrMDa:?jl@s7e?=X5[9v:@rM;.hen]E8x`XBRX02
     A10quWn KC2020 09 23xoC4:P+)1DLxS\9;%$3s;Ye9sC5%v*HnscexplanationD$lUL[uX02

Station data:
(E94) Gisborne (Possum Observatory)  (S38.629922 E177.883310)  New Zealand.
(J04) ESA Optical Ground Station, Tenerife  (N28.300924 W16.511830)  Canary
   Islands (Spain).  Observer D. Abreu. Measurers M. Micheli, D. Koschny, E.
   Schwab, M. Busch, A. Knöfel. 1.0-m f/4.4 reflector + CCD.
(Q62) iTelescope Observatory, Siding Spring  (S31.273289 E149.064420)
   Australia/NSW. 0.50-m f/6.8 astrograph + CCD + focal reducer, 0.70-m f/6.6
   astrograph + CCD.
(T08) ATLAS-MLO, Mauna Loa  (N19.536152 W155.576050)  US/Hawaii.  Observers
   L. Denneau, A. Heinze, H. Weiland, J. Tonry, H. Flewelling, A.
   Fitzsimmons, D. Young, B. Stalder. Measurers L. Denneau, A. Heinze, J.
   Tonry. 0.5-m f/2.0 Schmidt + CCD.
(W73) Observatorio Astronomico de Moquegua, Carumas  (S16.828157 W70.678440)
   Peru.
(W88) Slooh.com Chile Observatory, La Dehesa  (S33.269128 W70.534300)  Chile.
   0.35-m f/11 Schmidt-Cassegrain + CCD.
(W94) AMACS1, San Pedro de Atacama  (S22.953076 W68.179810)  Chile.
(X02) Telescope Live, El Sauce  (S30.470668 W70.764830)  Chile.
(X31) Galileo Galilei Observatory, Oro Verde  (S31.823022 W60.520660)
   Argentina.

Orbital elements:  A10quWn
   Perihelion 2022 Sep 3.740254 TT = 17:45:57 (JD 2459826.240254)
Epoch 2020 Sep 23.0 TT = JDT 2459115.5                        AutoNEOCP
q   2.83296178                      (J2000 ecliptic)
H   10.0  G 0.15   Peri.  349.44182
                   Node   268.65792
e   1.0105717      Incl.  115.06212
From 49 observations 2020 Sept. 15-23; mean residual 0".36
Residuals in arcseconds: 
200915 T08  .39-  .13+    200919 W73  .64-  .14-    200921 W94  .09-  .07+    
200915 T08  .25+  .16-    200919 J04  .12-  .02-    200921 W94  .00   .00     
200915 T08  .53+  .04+    200919 W73  .78+  .56+    200921 W88  .37+  .43+    
200915 T08  .41+  .51-    200919 J04  .12-  .19-    200921 W88  .06-  .01-    
200916 Q62  .12+  .10+    200919 J04  .10-  .04-    200921 E94  .14-  .08+    
200916 Q62  .21+  .29+    200919 W73  .39-  .23-    200921 E94  .16-  .23+    
200916 E94  .46+  .26+    200919 W94  .09-  .81+    200921 E94  .07-  .04-    
200916 Q62  .53+  .27+    200919 W94  .30+  .54-    200921 E94  .26+  .10-    
200916 E94  .22-  .04+    200919 W94  .77-  1.5-    200921 E94  .16-  .68+    
200916 E94  .38-  .26+    200920 W88  .08+  .02+    200922 Q62  .18+  .22-    
200918 E94  .72-  .08+    200920 W88  .11-  .16+    200922 Q62  .15+  .14+    
200918 E94  .24+  .19+    200920 W73  .09-  .13+    200922 Q62  .34+  .50+    
200918 E94  .09+  .62+    200920 W73  .01-  .21+    200923 X02  .29+  .18-    
200918 E94  .24+  .47-    200920 W73  .17-  .04+    200923 X02  .26+  .14-    
200919 W73  .54-  .28-    200921 X31  .61-  .62-    200923 X02  .20+  .13-    
200919 W73  .32-  .40-    200921 X31  .45+  .33-    
200919 W73  .31-  .12-    200921 W94  .00   .02+    

Ephemerides (geocentric):
Date (UTC) HH   RA              Dec         delta   r     elong  mag
---- -- -- --  -------------   -----------  ------ ------ -----  ---
2020 09 23 19  04 33 59.392   -41 41 10.99  6.6983 7.0451 106.2 18.9
2020 09 23 20  04 33 58.519   -41 41 37.05  6.6978 7.0448 106.3 18.9
2020 09 23 21  04 33 57.644   -41 42 03.11  6.6972 7.0445 106.3 18.9
2020 09 23 22  04 33 56.767   -41 42 29.18  6.6966 7.0442 106.3 18.9
2020 09 23 23  04 33 55.889   -41 42 55.24  6.6961 7.0439 106.3 18.9
2020 09 24 00  04 33 55.009   -41 43 21.30  6.6955 7.0436 106.3 18.9
2020 09 24 01  04 33 54.128   -41 43 47.36  6.6950 7.0433 106.3 18.9
2020 09 24 02  04 33 53.244   -41 44 13.41  6.6944 7.0430 106.4 18.9
2020 09 24 03  04 33 52.360   -41 44 39.47  6.6939 7.0427 106.4 18.9
2020 09 24 04  04 33 51.473   -41 45 05.53  6.6933 7.0424 106.4 18.9
2020 09 24 05  04 33 50.585   -41 45 31.59  6.6927 7.0421 106.4 18.9
2020 09 24 06  04 33 49.695   -41 45 57.65  6.6922 7.0418 106.4 18.9
2020 09 24 07  04 33 48.804   -41 46 23.71  6.6916 7.0415 106.4 18.9
2020 09 24 08  04 33 47.911   -41 46 49.77  6.6911 7.0412 106.5 18.9
2020 09 24 09  04 33 47.016   -41 47 15.82  6.6905 7.0409 106.5 18.9
2020 09 24 10  04 33 46.120   -41 47 41.88  6.6900 7.0406 106.5 18.9
2020 09 24 11  04 33 45.222   -41 48 07.94  6.6894 7.0403 106.5 18.9
2020 09 24 12  04 33 44.323   -41 48 33.99  6.6889 7.0400 106.5 18.9
2020 09 24 13  04 33 43.422   -41 49 00.05  6.6883 7.0397 106.5 18.9
2020 09 24 14  04 33 42.519   -41 49 26.10  6.6877 7.0394 106.6 18.9
2020 09 24 15  04 33 41.614   -41 49 52.16  6.6872 7.0391 106.6 18.9
2020 09 24 16  04 33 40.708   -41 50 18.21  6.6866 7.0388 106.6 18.9
2020 09 24 17  04 33 39.800   -41 50 44.27  6.6861 7.0385 106.6 18.9
2020 09 24 18  04 33 38.891   -41 51 10.32  6.6855 7.0382 106.6 18.9
2020 09 24 19  04 33 37.980   -41 51 36.37  6.6850 7.0379 106.6 18.9
2020 09 24 20  04 33 37.067   -41 52 02.42  6.6844 7.0376 106.6 18.9
2020 09 24 21  04 33 36.153   -41 52 28.48  6.6839 7.0373 106.7 18.9
2020 09 24 22  04 33 35.237   -41 52 54.53  6.6833 7.0370 106.7 18.9
2020 09 24 23  04 33 34.319   -41 53 20.58  6.6828 7.0367 106.7 18.9
2020 09 25 00  04 33 33.400   -41 53 46.63  6.6822 7.0365 106.7 18.9
2020 09 25 01  04 33 32.479   -41 54 12.68  6.6817 7.0362 106.7 18.9
2020 09 25 02  04 33 31.557   -41 54 38.73  6.6811 7.0359 106.7 18.9
2020 09 25 03  04 33 30.632   -41 55 04.77  6.6806 7.0356 106.8 18.9
2020 09 25 04  04 33 29.706   -41 55 30.82  6.6800 7.0353 106.8 18.9
2020 09 25 05  04 33 28.779   -41 55 56.87  6.6795 7.0350 106.8 18.9
2020 09 25 06  04 33 27.850   -41 56 22.91  6.6789 7.0347 106.8 18.9
2020 09 25 07  04 33 26.919   -41 56 48.96  6.6784 7.0344 106.8 18.9
2020 09 25 08  04 33 25.987   -41 57 15.01  6.6778 7.0341 106.8 18.9
2020 09 25 09  04 33 25.052   -41 57 41.05  6.6773 7.0338 106.9 18.9
2020 09 25 10  04 33 24.117   -41 58 07.09  6.6767 7.0335 106.9 18.9
2020 09 25 11  04 33 23.179   -41 58 33.14  6.6762 7.0332 106.9 18.9
2020 09 25 12  04 33 22.240   -41 58 59.18  6.6756 7.0329 106.9 18.9
2020 09 25 13  04 33 21.299   -41 59 25.22  6.6751 7.0326 106.9 18.9
2020 09 25 14  04 33 20.357   -41 59 51.26  6.6745 7.0323 106.9 18.9
2020 09 25 15  04 33 19.413   -42 00 17.30  6.6740 7.0320 106.9 18.9
2020 09 25 16  04 33 18.467   -42 00 43.34  6.6734 7.0317 107.0 18.9
2020 09 25 17  04 33 17.520   -42 01 09.38  6.6729 7.0314 107.0 18.9
2020 09 25 18  04 33 16.571   -42 01 35.41  6.6723 7.0311 107.0 18.9